This is the latest recevied weather packets stored in our database for station/object WD7OO. If no packets are shown the sender has not sent any weather packets the latest 10 day(s).
| Time | Temp. | Humidity | Pressure | Rain* | Wind** | Luminosity | Snow |
|---|---|---|---|---|---|---|---|
| 1778015385 | 11.11° C | 54% | 1009.7 hPa | 0 mm | - | 119 W/m² | - |
| 1778015083 | 11.11° C | 52% | 1009.7 hPa | 0 mm | - | 117 W/m² | - |
| 1778014779 | 11.11° C | 52% | 1009.7 hPa | 0 mm | - | 132 W/m² | - |
| 1778014478 | 11.11° C | 54% | 1009.4 hPa | 0 mm | - | 121 W/m² | - |
| 1778014174 | 11.11° C | 51% | 1009.6 hPa | 0 mm | - | 142 W/m² | - |
| 1778013872 | 11.11° C | 50% | 1009.3 hPa | 0 mm | - | 155 W/m² | - |
| 1778013569 | 11.67° C | 51% | 1009.3 hPa | 0 mm | - | 153 W/m² | - |
| 1778013266 | 11.67° C | 52% | 1009.2 hPa | 0 mm | - | 159 W/m² | - |
| 1778012962 | 11.67° C | 52% | 1009.4 hPa | 0 mm | - | 158 W/m² | - |
| 1778012658 | 11.67° C | 53% | 1009.6 hPa | 0 mm | - | 163 W/m² | - |
| 1778012355 | 11.67° C | 54% | 1009.6 hPa | 0 mm | - | 188 W/m² | - |
| 1778012052 | 12.22° C | 51% | 1009.4 hPa | 0 mm | - | 211 W/m² | - |
| 1778011750 | 11.67° C | 53% | 1009.2 hPa | 0 mm | - | 225 W/m² | - |
| 1778011447 | 12.22° C | 49% | 1009.5 hPa | 0 mm | - | 244 W/m² | - |
| 1778011142 | 12.22° C | 52% | 1009.2 hPa | 0 mm | - | 272 W/m² | - |
| 1778010840 | 12.78° C | 49% | 1009.6 hPa | 0 mm | - | 294 W/m² | - |
| 1778010537 | 12.78° C | 53% | 1009.3 hPa | 0 mm | - | 326 W/m² | - |
| 1778010234 | 12.78° C | 55% | 1009.6 hPa | 0 mm | - | 302 W/m² | - |
| 1778009929 | 12.78° C | 57% | 1009.5 hPa | 0 mm | - | 301 W/m² | - |
| 1778009627 | 12.78° C | 58% | 1009.5 hPa | 0 mm | - | 280 W/m² | - |
| 1778009324 | 12.78° C | 53% | 1009.4 hPa | 0 mm | - | 309 W/m² | - |
| 1778009023 | 12.78° C | 55% | 1009.7 hPa | 0 mm | - | 368 W/m² | - |
| 1778008720 | 13.33° C | 51% | 1009.8 hPa | 0 mm | - | 375 W/m² | - |
| 1778008419 | 12.78° C | 51% | 1009.8 hPa | 0 mm | - | 429 W/m² | - |
| 1778008115 | 12.78° C | 54% | 1009.8 hPa | 0 mm | - | 365 W/m² | - |
* Rain latest hour (hover to see other rain measurements)
** Current wind speed in m/s (hover to see current wind gust speed)